Location: Unspecified
(0.0000°N, 0.0000°E)
Time: 18:12:04
(UTC+00:00)

Vanguard 2 Rocket - Visible Passes

Search period start: 18 January 2020 00:00
Search period end: 28 January 2020 00:00
Orbit: 554 x 3326 km, 32.9° (Epoch: 17 January)

Date Brightness Start Highest point End Pass type
(mag) Time Alt. Az. Time Alt. Az. Time Alt. Az.
18 Jan 10.6 19:28:52 10° SW 19:35:32 13° SSW 19:41:09 10° S visible
19 Jan 10.7 18:20:45 10° WSW 18:33:08 20° SSW 18:43:01 10° SSE visible
20 Jan 10.5 19:49:04 10° SSW 19:51:35 11° SSW 19:53:56 10° S visible
21 Jan 10.7 18:39:35 10° SW 18:48:54 16° SSW 18:56:38 10° SSE visible
22 Jan 10.4 20:07:36 10° S 20:07:57 10° S 20:08:17 10° S visible
22 Jan 10.1 22:23:49 10° S 22:24:30 11° S 22:24:30 11° S visible
23 Jan 10.6 18:58:16 10° SW 19:05:11 13° SSW 19:11:06 10° SSE visible
23 Jan 10.0 21:22:44 10° S 21:26:10 12° S 21:28:06 11° SSE visible
24 Jan 10.1 20:19:54 10° SSW 20:24:17 12° S 20:28:03 10° SSE visible
24 Jan 10.1 22:35:52 10° SSW 22:37:30 13° SSW 22:37:30 13° SSW visible
25 Jan 10.4 19:15:04 10° SSW 19:21:42 13° S 19:27:19 10° SSE visible
25 Jan 9.7 21:34:42 10° SSW 21:41:07 18° S 21:41:07 18° S visible
26 Jan 9.8 20:32:44 10° SSW 20:40:21 16° S 20:44:45 13° SE visible
26 Jan 10.1 22:48:54 10° SW 22:50:32 14° SW 22:50:32 14° SW visible
27 Jan 10.2 19:29:41 10° SSW 19:38:07 16° S 19:44:47 10° SE visible
27 Jan 9.6 21:47:32 10° SSW 21:54:10 25° S 21:54:10 25° S visible
